Temp
-9 -9 -9 -9 -9 -9 -9 -9 -9 -9 -9 -9 -8 -8 -8 -8 -8 -8 -8 -8 -7 -7 -7 -7 -7 -8 -8 -9 -9 -9 -10 -9 -9
-9 -9 -9 -9 -9 -9 -9 -9 -9 -9 -9 -9 -9 -8 -8 -8 -8 -8 -7 -7 -7 -7 -7 -7 -8 -8 -8 -9 -10 -10 -10 -11 -11
-9 -9 -9 -9 -9 -9 -9 -9 -9 -9 -9 -9 -9 -8 -8 -8 -8 -7 -7 -7 -7 -7 -8 -8 -8 -8 -9 -10 -11 -11 -12 -11 -11
-9 -9 -9 -9 -9 -9 -9 -9 -9 -9 -9 -9 -8 -8 -8 -8 -7 -7 -7 -7 -8 -8 -8 -8 -9 -10 -11 -12 -12 -13 -13 -13 -13
-10 -10 -10 -10 -10 -9 -9 -9 -9 -9 -9 -9 -8 -8 -8 -8 -7 -8 -8 -8 -8 -8 -8 -9 -10 -11 -12 -12 -12 -12 -13 -13 -13
-10 -10 -10 -10 -10 -10 -10 -9 -9 -9 -9 -8 -8 -8 -8 -7 -8 -8 -9 -9 -8 -9 -9 -10 -11 -11 -11 -12 -12 -12 -12 -12 -12
-10 -10 -10 -10 -10 -10 -10 -9 -9 -9 -9 -8 -8 -8 -8 -8 -8 -9 -9 -9 -9 -9 -10 -10 -11 -11 -12 -12 -12 -12 -12 -12 -12
-10 -10 -10 -10 -10 -10 -10 -9 -9 -9 -9 -8 -8 -8 -8 -8 -9 -9 -9 -9 -9 -10 -10 -10 -11 -11 -12 -12 -12 -12 -12 -12 -13
-10 -10 -10 -10 -10 -10 -10 -9 -9 -9 -9 -8 -8 -8 -8 -8 -9 -9 -9 -9 -10 -10 -11 -11 -11 -12 -12 -12 -12 -12 -12 -12 -13
-10 -10 -10 -10 -10 -10 -10 -9 -9 -9 -9 -9 -8 -8 -8 -9 -9 -9 -9 -9 -10 -10 -11 -11 -11 -12 -12 -12 -12 -12 -12 -12 -13
-10 -10 -10 -10 -10 -10 -10 -10 -9 -9 -9 -9 -8 -9 -9 -9 -9 -9 -9 -10 -10 -10 -11 -11 -11 -12 -12 -12 -12 -12 -12 -12 -13
-11 -10 -10 -10 -10 -10 -10 -10 -9 -9 -9 -9 -9 -9 -9 -9 -10 -10 -10 -10 -10 -10 -10 -11 -11 -12 -12 -12 -12 -13 -13 -13 -13
-11 -10 -10 -10 -10 -10 -10 -10 -10 -10 -9 -9 -9 -9 -9 -10 -10 -10 -10 -10 -10 -10 -11 -11 -11 -12 -12 -12 -12 -13 -13 -13 -13
-11 -11 -11 -10 -10 -10 -10 -10 -10 -10 -10 -10 -10 -9 -10 -10 -10 -10 -10 -10 -10 -11 -11 -11 -11 -12 -12 -12 -12 -12 -13 -13 -13
-11 -11 -11 -11 -10 -10 -10 -10 -10 -10 -10 -10 -10 -10 -10 -10 -10 -10 -10 -10 -11 -11 -11 -11 -12 -12 -12 -12 -12 -12 -12 -13 -13
-10 -11 -11 -11 -11 -10 -11 -10 -10 -10 -10 -10 -10 -11 -11 -11 -11 -11 -10 -10 -10 -11 -11 -11 -11 -12 -12 -12 -12 -12 -12 -12 -13
-10 -11 -11 -11 -11 -11 -11 -11 -11 -11 -11 -11 -11 -11 -11 -11 -11 -11 -10 -11 -11 -11 -11 -11 -11 -12 -12 -12 -12 -13 -12 -12 -12
-11 -11 -11 -11 -11 -11 -11 -11 -11 -11 -11 -11 -11 -11 -11 -11 -11 -11 -11 -11 -11 -11 -11 -11 -11 -11 -12 -12 -12 -12 -13 -13 -13
-11 -11 -11 -11 -11 -11 -11 -11 -11 -11 -11 -11 -11 -11 -11 -11 -12 -12 -11 -11 -11 -11 -11 -11 -11 -11 -12 -12 -12 -12 -12 -13 -13
-11 -11 -11 -11 -12 -12 -12 -12 -11 -11 -11 -11 -11 -11 -12 -11 -11 -12 -12 -12 -11 -11 -11 -11 -11 -12 -12 -12 -12 -12 -12 -12 -12
Height
5881 5880 5878 5877 5876 5873 5871 5870 5868 5866 5863 5861 5858 5856 5854 5852 5849 5845 5841 5838 5834 5830 5826 5822 5818 5815 5812 5809 5807 5805 5804 5803 5801
5879 5878 5877 5875 5874 5872 5870 5868 5866 5864 5862 5859 5856 5854 5851 5848 5844 5839 5835 5831 5827 5823 5818 5814 5810 5807 5803 5800 5798 5796 5795 5794 5793
5878 5877 5876 5874 5873 5871 5869 5867 5864 5862 5859 5856 5854 5851 5847 5843 5839 5834 5830 5825 5820 5815 5811 5807 5803 5798 5794 5790 5788 5786 5785 5784 5784
5877 5875 5874 5873 5871 5869 5867 5864 5862 5859 5856 5854 5851 5847 5843 5839 5834 5829 5824 5818 5813 5809 5804 5799 5794 5789 5786 5783 5781 5779 5777 5775 5775
5875 5874 5872 5871 5869 5867 5864 5861 5859 5856 5854 5851 5847 5843 5839 5834 5828 5822 5817 5813 5808 5803 5798 5793 5789 5787 5783 5780 5777 5774 5771 5769 5767
5872 5871 5870 5869 5867 5864 5862 5859 5856 5854 5851 5847 5843 5839 5834 5828 5822 5816 5812 5809 5804 5799 5795 5790 5786 5783 5780 5776 5773 5770 5766 5763 5761
5869 5868 5867 5866 5864 5862 5859 5856 5853 5850 5847 5843 5839 5834 5828 5823 5818 5813 5810 5806 5801 5797 5792 5787 5783 5780 5776 5773 5769 5765 5761 5758 5755
5866 5865 5864 5863 5860 5858 5855 5852 5850 5846 5843 5839 5834 5829 5824 5819 5814 5811 5808 5803 5798 5794 5789 5785 5780 5776 5773 5769 5764 5760 5755 5752 5748
5862 5861 5860 5859 5856 5854 5851 5848 5846 5842 5839 5835 5830 5825 5820 5815 5811 5808 5805 5800 5795 5790 5786 5782 5777 5773 5769 5765 5760 5756 5751 5747 5743
5859 5858 5856 5854 5852 5849 5847 5844 5841 5838 5834 5830 5826 5821 5816 5812 5808 5805 5801 5796 5791 5787 5783 5778 5773 5770 5766 5763 5757 5752 5747 5742 5739
5855 5853 5852 5850 5847 5845 5842 5840 5837 5833 5830 5826 5822 5817 5812 5808 5805 5801 5797 5793 5788 5783 5779 5774 5770 5766 5763 5759 5754 5749 5744 5740 5736
5850 5849 5847 5845 5842 5840 5837 5835 5832 5829 5825 5821 5817 5813 5808 5805 5801 5797 5793 5789 5785 5780 5775 5770 5767 5762 5759 5756 5751 5746 5741 5738 5734
5846 5844 5842 5840 5837 5835 5832 5829 5826 5824 5820 5816 5812 5808 5804 5800 5796 5792 5788 5784 5781 5776 5772 5767 5763 5760 5755 5752 5749 5744 5739 5735 5732
5840 5838 5836 5834 5832 5829 5827 5824 5821 5818 5814 5811 5807 5803 5799 5795 5792 5788 5784 5780 5776 5772 5767 5763 5760 5756 5752 5748 5744 5741 5737 5733 5730
5834 5832 5831 5828 5826 5824 5821 5818 5815 5812 5808 5805 5802 5799 5795 5791 5787 5783 5780 5775 5771 5768 5764 5760 5756 5753 5749 5745 5741 5738 5735 5731 5727
5828 5826 5824 5822 5820 5817 5814 5811 5808 5805 5802 5798 5795 5792 5788 5785 5781 5778 5774 5771 5767 5763 5759 5756 5753 5749 5746 5742 5738 5736 5733 5729 5726
5820 5820 5818 5816 5813 5810 5807 5804 5801 5798 5795 5792 5788 5785 5781 5777 5775 5772 5768 5765 5762 5758 5755 5751 5748 5745 5742 5739 5735 5732 5730 5727 5724
5813 5812 5810 5808 5805 5802 5799 5796 5793 5790 5786 5783 5780 5777 5773 5769 5766 5764 5761 5759 5756 5753 5750 5746 5743 5740 5737 5734 5731 5729 5725 5723 5721
5805 5804 5801 5799 5796 5794 5791 5788 5785 5781 5777 5774 5770 5767 5764 5761 5759 5755 5753 5751 5749 5747 5744 5741 5738 5736 5732 5728 5725 5723 5721 5718 5716
5797 5794 5792 5790 5788 5785 5782 5779 5776 5772 5768 5765 5761 5756 5753 5750 5749 5748 5745 5743 5741 5739 5736 5734 5731 5729 5726 5723 5720 5717 5714 5713 5711
Wind_Speed
2 4 8 11 14 16 18 19 19 19 19 19 18 20 22 26 31 33 35 36 37 39 41 43 44 44 43 42 41 40 39 37 38
4 6 8 11 14 16 17 18 20 21 20 19 19 22 26 31 35 38 39 40 41 42 43 44 44 43 44 44 43 43 42 41 38
7 9 10 13 14 16 18 20 22 22 21 20 22 26 31 35 38 40 40 41 43 41 39 40 43 45 45 43 42 42 42 42 42
10 11 12 14 16 19 21 22 23 22 21 22 26 31 34 37 40 43 43 43 37 36 39 39 37 35 32 31 32 35 36 37 37
13 13 15 16 18 22 24 23 23 23 23 25 29 33 37 41 45 46 42 34 35 39 37 31 29 28 27 26 28 29 29 31 32
14 16 17 18 21 22 25 23 23 23 24 27 31 35 40 45 46 41 31 34 33 33 31 28 25 28 29 26 26 27 28 31 32
17 18 18 20 23 24 23 23 22 23 25 29 32 37 44 46 41 29 32 31 31 29 30 29 26 30 27 23 31 31 30 31 33
18 18 19 21 24 23 22 23 23 24 27 30 34 40 44 44 30 27 30 31 30 28 29 29 30 27 24 25 31 28 29 28 27
20 20 20 23 25 23 24 24 24 25 28 31 35 40 43 36 25 28 30 31 30 29 28 30 32 25 22 26 28 28 28 27 27
21 22 23 24 24 25 25 25 26 28 30 33 35 39 39 31 26 30 30 30 31 30 29 30 29 26 23 26 28 29 28 26 26
22 23 25 25 25 26 26 27 29 30 31 34 36 39 36 29 27 28 30 29 30 30 30 28 25 25 24 26 29 27 24 23 22
24 25 26 27 27 27 26 28 30 31 33 35 37 38 33 28 27 30 31 28 29 29 28 28 25 23 24 26 27 21 19 19 19
26 26 27 28 28 27 28 31 32 33 36 37 39 38 32 27 29 31 31 29 29 30 30 29 26 25 26 25 25 20 20 18 18
28 28 29 29 29 28 30 33 35 36 38 40 41 39 32 30 32 33 31 29 30 30 28 30 29 28 29 27 23 21 20 19 19
31 31 31 31 31 32 33 35 36 38 39 42 42 39 36 34 35 34 32 31 29 29 27 28 28 28 28 28 22 21 20 20 20
33 34 34 34 34 35 37 37 39 40 42 43 43 43 41 38 37 34 31 31 29 27 27 27 28 28 28 29 25 23 22 22 21
34 35 36 37 37 38 39 40 40 42 42 43 44 44 44 43 39 35 31 29 29 28 27 29 30 30 30 29 27 25 23 24 23
35 36 38 39 40 41 41 42 42 41 43 45 47 47 44 41 41 37 33 30 28 29 28 30 32 34 36 33 31 29 26 25 26
37 39 41 42 43 44 44 44 43 43 45 47 50 51 47 41 37 36 36 33 32 31 29 31 34 36 36 37 35 33 30 28 26
41 42 44 46 46 46 45 44 44 45 47 49 49 46 42 40 37 36 33 35 36 36 36 37 37 38 38 37 37 36 34 30 29
Wind_Direction
337 340 339 348 353 353 350 346 347 341 336 334 334 335 335 337 336 332 328 324 320 316 312 307 304 302 297 291 284 279 276 273 271
294 314 330 337 342 343 345 348 345 340 335 331 332 334 338 337 335 331 326 322 316 312 308 307 306 303 298 293 286 279 275 271 267
282 301 318 327 329 331 336 337 336 336 332 332 334 337 338 336 332 327 322 317 314 312 311 308 305 302 300 297 289 281 276 272 271
281 296 308 314 320 325 330 332 329 329 330 335 338 339 337 334 329 325 322 319 318 318 316 314 316 320 318 313 302 292 287 282 276
282 294 301 308 313 322 327 329 328 328 330 338 340 338 335 331 331 329 327 324 323 323 322 323 330 332 329 323 316 307 297 289 284
284 290 296 305 314 320 325 325 325 325 332 336 337 337 336 335 333 331 330 329 328 330 331 330 327 325 320 317 318 312 303 295 289
283 287 295 304 312 319 321 321 318 324 331 334 334 337 339 337 334 332 332 328 327 333 335 328 323 322 321 320 321 310 302 294 287
283 286 295 303 312 315 316 316 317 324 330 331 334 339 339 337 333 333 332 325 326 330 331 326 322 321 323 317 321 315 312 308 299
281 285 293 302 308 309 313 314 315 321 326 328 335 338 337 334 327 331 329 325 325 326 327 325 324 319 323 321 327 318 316 311 306
278 283 291 300 304 309 311 310 313 318 322 327 332 333 335 329 324 330 325 325 326 324 324 325 325 320 321 326 328 323 322 317 311
277 283 291 295 302 307 305 306 311 314 319 323 328 329 330 322 320 323 323 324 328 327 322 323 323 319 321 324 329 328 329 328 325
278 283 287 293 299 301 301 303 306 310 315 320 324 326 323 316 317 320 321 319 326 326 323 322 319 315 318 322 326 330 338 340 338
279 282 285 291 295 297 299 301 305 310 313 317 320 322 316 312 315 317 320 320 325 327 326 323 318 316 315 318 324 324 324 323 325
277 280 284 289 292 293 296 300 304 308 310 314 319 322 311 306 311 316 318 321 323 326 329 327 319 319 321 318 316 321 321 322 322
278 280 283 286 289 292 295 297 301 304 307 312 318 319 308 304 309 313 314 317 322 325 328 328 323 316 321 324 312 315 313 316 316
278 281 283 285 287 290 293 297 300 302 306 309 313 318 310 301 307 309 310 314 317 321 328 332 329 325 321 323 315 310 311 313 315
279 282 284 285 285 288 292 296 299 301 304 307 311 315 311 301 300 302 301 305 310 314 320 326 331 330 325 319 317 309 308 306 311
280 281 283 285 287 288 292 295 299 302 304 306 307 309 307 300 295 295 293 296 300 307 312 316 320 324 325 324 318 312 304 301 304
280 282 283 285 287 290 293 298 302 303 303 305 306 306 304 298 291 292 291 292 292 296 302 309 312 312 316 318 319 318 308 300 292
282 283 286 289 291 295 299 300 301 302 302 304 305 302 297 293 286 288 287 290 291 290 294 298 301 305 305 306 309 310 312 308 298